DO5RS-5 Weather Reports


time (UTC)temp
C
wind
direction
speed
KPH
gust
KPH
rain 1hr
cm
rain 24hr
cm
rain mn
cm
humidity
%
barometer
mb
20260508135904 22 0.0 0.0 0.00 0.00 0.00 38 1020.2
20260508134905 23 0.0 0.0 0.00 0.00 0.00 37 1020.1
20260508133905 24 0.0 0.0 0.00 0.00 0.00 34 1020.1
20260508132904 23 0.0 0.0 0.00 0.00 0.00 36 1020.2
20260508131904 23 0.0 0.0 0.00 0.00 0.00 39 1020.2
20260508130908 25 0.0 0.0 0.00 0.00 0.00 37 1020.1
20260508124905 24 0.0 0.0 0.00 0.00 0.00 37 1020.4
20260508123905 25 0.0 0.0 0.00 0.00 0.00 36 1020.3
20260508122905 25 0.0 0.0 0.00 0.00 0.00 37 1020.3
20260508121904 25 0.0 0.0 0.00 0.00 0.00 38 1020.4
20260508120907 25 0.0 0.0 0.00 0.00 0.00 39 1020.5
20260508115907 23 0.0 0.0 0.00 0.00 0.00 39 1020.6
20260508114906 24 0.0 0.0 0.00 0.00 0.00 38 1020.5
20260508113905 23 0.0 0.0 0.00 0.00 0.00 43 1020.6
20260508112905 22 0.0 0.0 0.00 0.00 0.00 44 1020.9
20260508111904 22 0.0 0.0 0.00 0.00 0.00 44 1020.9
20260508110904 20 0.0 0.0 0.00 0.00 0.00 49 1021.1
20260508105904 18 0.0 0.0 0.00 0.00 0.00 54 1021.4
20260508104906 16 0.0 0.0 0.00 0.00 0.00 59 1021.5
20260508103906 16 0.0 0.0 0.00 0.00 0.00 60 1021.7
20260508102909 16 0.0 0.0 0.00 0.00 0.00 60 1021.8
20260508100905 15 0.0 0.0 0.00 0.00 0.00 64 1021.9
20260508095906 14 0.0 0.0 0.00 0.00 0.00 66 1022.2
20260508094909 14 0.0 0.0 0.00 0.00 0.00 68 1022.2
20260508092905 13 0.0 0.0 0.00 0.00 0.00 70 1022.4
20260508091905 13 0.0 0.0 0.00 0.00 0.00 71 1022.5
20260508090904 13 0.0 0.0 0.00 0.00 0.00 72 1022.4
20260508085905 13 0.0 0.0 0.00 0.00 0.00 71 1022.5
20260508084905 13 0.0 0.0 0.00 0.00 0.00 69 1022.6
20260508083904 13 0.0 0.0 0.00 0.00 0.00 70 1022.6
20260508082903 13 0.0 0.0 0.00 0.00 0.00 70 1022.6
20260508081905 13 0.0 0.0 0.00 0.00 0.00 72 1022.7
20260508080912 13 0.0 0.0 0.00 0.00 0.00 73 1022.7
20260508074905 12 0.0 0.0 0.00 0.00 0.00 74 1022.7
20260508073904 12 0.0 0.0 0.00 0.00 0.00 76 1022.8
20260508072908 12 0.0 0.0 0.00 0.00 0.00 78 1022.8
20260508070905 11 0.0 0.0 0.00 0.00 0.00 80 1022.7
20260508065909 11 0.0 0.0 0.00 0.00 0.00 81 1022.7
20260508064908 11 0.0 0.0 0.00 0.00 0.00 80 1022.7
20260508063905 11 0.0 0.0 0.00 0.00 0.00 81 1022.7
20260508062904 11 0.0 0.0 0.00 0.00 0.00 82 1022.6
20260508061905 10 0.0 0.0 0.00 0.00 0.00 83 1022.5
20260508060904 10 0.0 0.0 0.00 0.00 0.00 81 1021.9
20260508055905 10 0.0 0.0 0.00 0.00 0.00 81 1022.5
20260508054906 10 0.0 0.0 0.00 0.00 0.00 81 1022.4
20260508053905 10 0.0 0.0 0.00 0.00 0.00 81 1022.4
20260508052905 10 0.0 0.0 0.00 0.00 0.00 81 1022.4
20260508051904 10 0.0 0.0 0.00 0.00 0.00 81 1022.2
20260508050906 10 0.0 0.0 0.00 0.00 0.00 80 1022.2
20260508045907 10 0.0 0.0 0.00 0.00 0.00 80 1022.2
20260508044904 10 0.0 0.0 0.00 0.00 0.00 80 1022.1
20260508043905 10 0.0 0.0 0.00 0.00 0.00 79 1022.1
20260508042904 9 0.0 0.0 0.00 0.00 0.00 79 1022.0
20260508041903 9 0.0 0.0 0.00 0.00 0.00 78 1022.1
20260508040904 9 0.0 0.0 0.00 0.00 0.00 78 1022.1
20260508035905 9 0.0 0.0 0.00 0.00 0.00 78 1022.1
20260508034909 9 0.0 0.0 0.00 0.00 0.00 77 1022.0
20260508032904 9 0.0 0.0 0.00 0.00 0.00 77 1021.9
20260508031904 9 0.0 0.0 0.00 0.00 0.00 76 1021.9
20260508030905 9 0.0 0.0 0.00 0.00 0.00 76 1021.9
20260508025905 8 0.0 0.0 0.00 0.00 0.00 76 1021.2
20260508024905 9 0.0 0.0 0.00 0.00 0.00 76 1021.8
20260508023905 9 0.0 0.0 0.00 0.00 0.00 77 1021.8
20260508022909 9 0.0 0.0 0.00 0.00 0.00 77 1021.9
20260508015904 10 0.0 0.0 0.00 0.00 0.00 79 1021.8
20260508014904 10 0.0 0.0 0.00 0.00 0.00 78 1021.9
20260508013905 10 0.0 0.0 0.00 0.00 0.00 78 1021.8
20260508012905 10 0.0 0.0 0.00 0.00 0.00 79 1021.7
20260508011904 10 0.0 0.0 0.00 0.00 0.00 79 1021.6
20260508010906 10 0.0 0.0 0.00 0.00 0.00 80 1021.7
20260508005907 10 0.0 0.0 0.00 0.00 0.00 80 1021.7
20260508004906 10 0.0 0.0 0.00 0.00 0.00 81 1021.7
20260508003904 10 0.0 0.0 0.00 0.00 0.00 81 1021.7
20260508002905 10 0.0 0.0 0.00 0.00 0.00 81 1021.7
20260508001905 11 0.0 0.0 0.00 0.00 0.00 81 1021.8
20260508000909 11 0.0 0.0 0.00 0.00 0.00 81 1021.8
20260507234905 10 0.0 0.0 0.00 0.00 0.00 81 1021.7
20260507233905 11 0.0 0.0 0.00 0.00 0.00 81 1021.9
20260507232905 11 0.0 0.0 0.00 0.00 0.00 81 1021.9
20260507231906 11 0.0 0.0 0.00 0.00 0.00 81 1022.0
20260507230905 11 0.0 0.0 0.00 0.00 0.00 81 1022.0
20260507225905 11 0.0 0.0 0.00 0.00 0.00 82 1022.0
20260507224905 11 0.0 0.0 0.00 0.00 0.00 81 1021.9
20260507223909 11 0.0 0.0 0.00 0.00 0.00 81 1022.0
20260507221905 11 0.0 0.0 0.00 0.00 0.00 81 1021.9
20260507220909 11 0.0 0.0 0.00 0.00 0.00 82 1021.8
20260507214920 11 0.0 0.0 0.00 0.00 0.00 82 1021.6
20260507213904 12 0.0 0.0 0.00 0.00 0.00 83 1021.6
20260507212905 12 0.0 0.0 0.00 0.00 0.00 83 1021.4
20260507211904 12 0.0 0.0 0.00 0.00 0.00 84 1021.4
20260507210906 12 0.0 0.0 0.00 0.00 0.00 84 1021.3
20260507205910 12 0.0 0.0 0.00 0.00 0.00 84 1021.3
20260507202908 12 0.0 0.0 0.00 0.00 0.00 84 1021.1
20260507200904 12 0.0 0.0 0.00 0.00 0.00 84 1020.9
20260507195905 12 0.0 0.0 0.00 0.00 0.00 84 1020.8
20260507194905 12 0.0 0.0 0.00 0.00 0.00 84 1020.7
20260507193909 12 0.0 0.0 0.00 0.00 0.00 84 1020.8
20260507191906 12 0.0 0.0 0.00 0.00 0.00 83 1020.0
20260507190905 12 0.0 0.0 0.00 0.00 0.00 83 1020.1
20260507185904 13 0.0 0.0 0.00 0.00 0.00 82 1020.5
20260507184909 13 0.0 0.0 0.00 0.00 0.00 81 1020.3
20260507182909 13 0.0 0.0 0.00 0.00 0.00 81 1020.0
20260507180905 13 0.0 0.0 0.00 0.00 0.00 79 1019.9
20260507175905 13 0.0 0.0 0.00 0.00 0.00 78 1019.8
20260507174905 13 0.0 0.0 0.00 0.00 0.00 77 1019.7
20260507173905 13 0.0 0.0 0.00 0.00 0.00 77 1019.5
20260507172906 13 0.0 0.0 0.00 0.00 0.00 77 1019.5
20260507171909 13 0.0 0.0 0.00 0.00 0.00 76 1019.5
20260507164905 13 0.0 0.0 0.00 0.00 0.00 75 1019.2
20260507163905 13 0.0 0.0 0.00 0.00 0.00 75 1019.2
20260507162909 13 0.0 0.0 0.00 0.00 0.00 74 1019.2
20260507155904 14 0.0 0.0 0.00 0.00 0.00 74 1019.1
20260507154909 14 0.0 0.0 0.00 0.00 0.00 73 1019.0
20260507152905 14 0.0 0.0 0.00 0.00 0.00 73 1018.9
20260507151905 14 0.0 0.0 0.00 0.00 0.00 72 1018.8
20260507150905 14 0.0 0.0 0.00 0.00 0.00 73 1018.7
20260507145904 14 0.0 0.0 0.00 0.00 0.00 73 1018.7
20260507144906 14 0.0 0.0 0.00 0.00 0.00 75 1018.1
20260507143906 14 0.0 0.0 0.00 0.00 0.00 74 1018.6
20260507142904 14 0.0 0.0 0.00 0.00 0.00 73 1018.6
20260507141909 14 0.0 0.0 0.00 0.00 0.00 73 1018.6